{"data":{"norad_id":54799,"epoch":"2026-09-20T12:21:38.595456Z","epoch_age_seconds":92163,"freshness":"FRESH","line1":"1 54799U 22175AT  26263.51503004  .00017153  00000+0  50125-3 0  9990","line2":"2 54799  53.1592 217.4407 0001646  65.3763 294.7411 15.35417306209771","mean_motion":15.35417306,"eccentricity":0.0001646,"inclination_deg":53.1592,"raan_deg":217.4407,"arg_perigee_deg":65.3763,"mean_anomaly_deg":294.7411,"bstar":0.00050125,"rev_number":20977,"period_min":93.785578316257,"perigee_km":458.5557570812,"apogee_km":460.80676685304,"semimajor_km":6837.8182619671,"source":"CELESTRAK","updated_at":"2026-09-21T09:00:33.128725Z"}}